Find Starlink 4044

NORAD ID: 52662 Int'l Des: 2022-053 Owner: SPXS Country: US Constellation: starlink operational
LEOCIRCULAR

現在のビュー

3D地球を読み込み中...

About Starlink 4044

Starlink 4044 (NORAD 52662) is a starlink constellation satellite (v1.5) launched May 18, 2022 by SPXS of US. It operates in LEO, CIRCULAR orbit with a mass of 297.00 kg.

Starlink 4044について

説明を読み込み中...

次回通過

Passes for default location (London). Set your location on the main map for personalized predictions.

高度履歴

Loading altitude history...

軌道要素

1 52662U 22053G 26170.42125369 .00000276 00000-0 35460-4 0 9998
2 52662 53.1605 57.3220 0001347 88.6072 271.5074 15.08836179226406
Epoch: Jun 19, 2026 • Age: 13 hours

現在のステータス

高度 541.3 km
速度 7.60 km/s
衛星直下点 32.89°N, 53.7°W
打ち上げ日 May 18, 2022
運用期間 4 years
タイプ internet

技術仕様

分類 Payload
質量 297.00 kg
乾燥質量 275.00 kg
総質量 297.00 kg
長さ 0.20 m
直径 2.80 m
スパン 9.00 m
形状 Box + pan
製造者 SPXS
バスタイプ Starlink
フェーズステータス In Orbit
所有者/国 SPXS/US

Most Searched